Location: Buckeye Ditch
(40.9104°N, 122.9517°W)
Time: 10:11:56
(UTC+00:00)

SL-16 R/B - Pass Details

Date: 13 April 2024
Orbit: 985 x 1006 km, 99.7° (Epoch: 23 May)

Event Time Altitude Azimuth Distance (km) Brightness Sun altitude
Exits shadow 12:36:07 13° 263° (W) 2,524 4.1 -11.4°
Maximum altitude 12:36:49 13° 271° (W) 2,510 4.1 -11.3°
Drops below altitude 10° 12:39:41 10° 299° (WNW) 2,762 4.5 -10.8°
Sets 12:43:45 0° 325° (NW) 3,722 5.4 -10.0°
